EHI
0 0 0 0 0 0 0 0 0 0 0 0 0 0 0 0 0 0 0 0 0 0 1 2 3 5 6 5 4 2 0 0 2 5 6 3 1 0 0 0 0 0 0 0
0 0 0 0 0 0 0 0 0 0 0 0 0 0 0 0 0 0 0 0 0 0 0 1 2 5 6 5 4 2 1 0 1 4 4 2 1 0 0 0 0 0 0 0
0 0 0 0 0 0 0 0 0 0 0 0 0 0 0 0 0 0 0 0 0 0 0 0 1 3 5 5 4 3 1 0 0 1 1 1 0 0 0 0 0 0 0 0
0 0 0 0 0 0 0 0 0 0 0 0 0 0 0 0 0 0 0 0 0 0 0 0 0 1 2 3 4 3 2 1 1 0 0 0 0 0 0 1 1 1 0 0
0 0 0 0 0 0 0 0 0 0 0 0 0 0 0 0 0 0 0 0 0 0 0 0 0 0 0 1 3 4 3 2 2 1 0 0 0 0 0 1 2 1 0 0
0 0 0 0 0 0 0 0 0 0 0 0 0 0 0 0 0 0 0 0 0 0 0 0 0 0 0 1 2 3 3 3 2 1 0 0 0 0 0 1 1 1 0 0
0 0 0 0 0 0 0 0 0 0 0 0 0 0 0 0 0 0 0 0 0 0 0 0 0 0 0 0 1 1 2 2 1 1 1 1 1 2 2 1 0 0 0 0
0 0 0 0 0 0 0 0 0 0 0 0 0 0 0 0 0 0 0 0 0 0 0 0 0 0 0 0 0 0 1 1 1 2 3 3 4 5 5 4 1 0 0 0
0 0 0 0 0 0 0 0 0 0 0 0 0 0 0 0 0 0 0 0 0 0 0 0 0 0 0 0 0 0 0 0 0 2 4 5 5 6 6 4 1 0 0 0
0 0 0 0 0 0 0 0 0 0 0 0 0 0 0 0 0 0 0 0 0 0 0 0 0 0 0 0 0 0 0 0 0 2 3 3 3 3 3 2 0 0 0 0
0 0 0 0 0 0 0 0 0 0 0 0 0 0 0 0 0 0 0 0 0 0 0 0 0 0 0 0 0 0 0 0 0 1 1 1 1 1 1 0 0 0 0 0
0 0 0 0 0 0 0 0 0 0 0 0 0 0 0 0 0 0 0 0 0 0 0 0 0 0 0 0 0 0 0 0 0 0 0 0 0 0 0 0 0 0 0 0
0 0 0 0 0 0 0 0 0 0 0 0 0 0 0 0 0 0 0 0 0 0 0 0 0 0 0 0 0 0 0 0 0 0 0 0 0 0 0 0 0 0 0 0
0 0 0 0 0 0 0 0 0 0 0 0 0 0 0 0 0 0 0 0 0 0 0 0 0 0 0 0 0 0 0 0 0 0 0 0 0 0 0 0 0 0 0 0
0 0 0 0 0 0 0 0 0 0 0 0 0 0 0 0 0 0 0 0 0 0 0 0 0 0 0 0 0 0 0 0 0 0 0 0 0 0 0 0 0 0 0 0
0 0 0 0 0 0 0 0 0 0 0 0 0 0 0 0 0 0 0 0 0 0 0 0 0 0 0 0 0 0 0 0 0 0 0 0 0 0 0 0 0 0 0 0
0 0 0 0 0 0 0 0 0 0 0 0 0 0 0 0 0 0 0 0 0 0 0 0 0 0 0 0 0 0 0 0 0 0 0 0 0 0 0 0 0 0 0 0
0 0 0 0 0 0 0 0 0 0 0 0 0 0 0 0 0 0 0 0 0 0 0 0 0 0 0 0 0 0 0 0 0 0 0 0 0 0 0 0 0 0 0 0
0 0 0 0 0 0 0 0 0 0 0 0 0 0 0 0 0 0 0 0 0 0 0 0 0 0 0 0 0 0 0 0 0 0 0 0 0 0 0 0 0 0 0 0
0 0 0 0 0 0 0 0 0 0 0 0 0 0 0 0 0 0 0 0 0 0 0 0 0 0 0 0 0 0 0 0 0 0 0 0 0 0 0 0 0 0 0 0
0 0 0 0 0 0 0 0 0 0 0 0 0 0 0 0 0 0 0 0 0 0 0 0 0 0 0 0 0 0 0 0 0 0 0 0 0 0 0 0 0 0 0 0
0 0 0 0 0 0 0 0 0 0 0 0 0 0 0 0 0 0 0 0 0 0 0 0 0 0 0 0 0 0 0 0 0 0 0 0 0 0 0 0 0 0 0 0
0 0 0 0 0 0 0 0 0 0 0 0 0 0 0 0 0 0 0 0 0 0 0 0 0 0 0 0 0 0 0 0 0 0 0 0 0 0 0 0 0 0 0 0
0 0 0 0 0 0 0 0 0 0 0 0 0 0 0 0 0 0 0 0 0 0 0 0 0 0 0 0 0 0 0 0 0 0 0 0 0 0 0 0 0 0 0 0
0 0 0 0 0 0 0 0 0 0 0 0 0 0 0 0 0 0 0 0 0 0 0 0 0 0 0 0 0 0 0 0 0 0 0 0 0 0 0 0 0 0 0 0
0 0 0 0 0 0 0 0 0 0 0 0 0 0 0 0 0 0 0 0 0 0 0 0 0 0 0 0 0 0 0 0 0 0 0 0 0 0 0 0 0 0 0 0
Wind_Speed
3 4 6 8 9 5 7 10 11 11 8 12 16 16 13 9 10 12 12 13 12 12 8 6 6 7 8 9 10 11 11 10 8 7 7 6 6 6 5 5 6 7 7 8
4 4 4 4 4 5 8 9 9 6 6 9 12 15 14 13 13 13 13 14 13 12 9 7 6 7 8 9 10 10 10 10 10 8 7 5 5 5 5 5 6 6 7 7
3 2 4 5 6 7 8 9 10 7 6 7 8 13 16 16 16 14 14 13 14 13 12 10 8 7 7 8 9 8 9 9 9 9 6 4 3 3 4 6 5 6 6 6
1 2 5 6 6 6 6 6 7 8 9 7 10 9 13 15 17 18 17 16 15 14 12 10 9 8 8 7 6 7 7 8 8 8 8 9 7 7 6 5 4 4 5 5
2 3 6 7 6 6 3 4 5 7 7 5 9 9 8 10 16 19 19 18 16 15 13 11 10 8 7 6 6 6 6 6 6 7 8 8 7 5 4 4 5 5 4 3
2 2 2 3 3 5 5 5 4 3 5 8 11 11 8 9 14 15 16 17 16 14 13 12 9 7 6 6 6 6 6 6 5 6 7 7 7 6 6 6 5 4 3 3
2 3 3 3 6 6 6 7 5 6 7 7 6 10 10 6 8 11 12 13 13 12 12 12 11 10 9 8 7 7 7 6 6 6 5 5 5 5 6 5 5 4 3 3
4 4 6 6 6 7 8 7 5 5 7 5 7 10 7 4 5 7 9 9 9 11 11 11 11 10 9 9 8 8 8 7 6 6 5 4 4 3 3 3 3 3 2 2
4 3 4 5 3 5 7 7 2 1 0 3 7 6 8 5 6 6 7 7 8 9 10 10 10 10 10 9 8 8 8 7 6 5 5 4 4 3 3 3 2 2 1 1
2 3 4 4 3 3 4 5 4 4 4 6 6 7 5 5 5 4 4 5 5 6 7 8 8 9 9 8 8 7 7 7 6 5 4 3 3 3 3 3 3 2 2 1
3 3 5 6 8 9 7 6 6 4 4 4 4 3 1 2 2 3 3 3 3 5 7 8 8 8 8 8 8 8 7 7 6 5 5 5 4 3 3 2 2 2 1 1
5 3 4 5 2 5 8 8 8 6 5 5 4 2 3 1 2 3 2 1 2 4 6 7 8 9 9 8 8 8 7 7 6 5 5 5 4 4 3 3 3 2 2 2
5 4 3 4 4 5 7 9 10 6 3 5 6 3 3 1 2 1 1 1 3 5 6 8 8 9 9 8 8 7 7 6 6 6 5 5 4 4 3 3 3 3 2 2
4 5 6 5 2 6 7 10 12 9 6 8 10 9 5 4 4 3 2 2 4 5 7 8 8 9 8 8 8 8 7 7 6 6 5 5 4 4 4 4 3 3 3 3
3 5 6 7 5 5 7 10 14 15 13 10 10 12 13 10 8 7 6 4 5 6 8 9 10 9 9 9 8 8 7 7 7 6 5 5 5 4 4 4 4 4 4 4
3 4 4 5 5 7 9 11 14 15 15 16 15 16 12 11 9 9 9 8 8 9 10 10 10 10 10 10 9 9 8 8 7 7 6 6 5 5 5 4 4 4 4 4
4 4 4 4 3 4 8 10 14 13 13 12 15 14 10 9 9 10 9 9 10 10 10 11 11 11 11 11 10 10 9 9 8 7 7 6 6 6 5 5 5 4 4 4
6 5 3 3 3 7 2 0 7 11 13 13 13 12 11 11 10 10 9 10 10 9 9 10 10 10 10 9 9 9 9 9 9 8 7 7 7 6 6 5 5 5 4 4
9 6 4 3 4 6 3 2 4 6 6 7 11 13 11 8 7 8 7 9 9 8 7 7 8 8 8 9 10 10 10 9 9 9 8 8 8 7 7 6 6 5 5 4
5 6 5 4 4 4 1 1 1 3 4 1 4 7 6 3 5 2 3 2 4 4 3 4 5 6 8 9 10 11 10 10 10 9 8 8 8 8 7 7 6 5 5 5
2 4 5 6 5 4 3 1 3 4 2 2 3 4 4 4 4 4 4 3 1 0 1 3 5 6 6 8 10 10 10 10 9 8 8 8 8 7 7 6 6 6 6 5
3 3 3 4 5 3 3 2 2 3 4 3 4 3 3 3 3 2 2 2 2 2 2 3 4 4 5 8 9 9 8 7 7 8 8 8 8 7 6 7 6 6 7 6
3 3 3 4 3 4 2 2 4 5 5 5 4 4 3 2 1 0 1 2 2 2 2 2 3 4 4 6 7 7 6 7 8 8 8 8 8 7 7 8 8 7 6 6
3 3 4 5 5 6 5 4 5 5 6 6 5 4 3 2 1 0 1 1 2 2 2 2 3 3 3 5 6 5 6 8 9 9 8 8 8 7 7 6 6 6 7 6
6 4 5 6 7 7 4 5 6 6 6 4 4 3 2 1 0 0 1 1 1 1 1 1 2 2 3 4 5 5 6 8 8 8 8 7 7 7 7 7 6 8 7 7
3 4 4 4 5 7 8 8 9 7 6 4 3 3 3 1 0 1 1 1 1 0 0 1 1 2 2 3 4 5 7 8 8 7 7 6 6 6 6 6 5 9 8 11
Wind_Direction
157 192 195 198 211 226 192 194 198 203 191 209 221 229 226 220 225 227 226 225 220 221 212 202 205 201 200 201 203 204 200 200 198 194 195 197 202 202 204 208 210 210 212 211
162 201 198 188 197 198 194 198 196 187 192 216 226 234 234 231 233 232 230 227 222 220 212 204 202 198 199 198 200 199 200 199 198 201 198 199 198 201 204 201 208 210 211 210
176 149 170 177 179 189 195 204 199 187 178 213 229 237 230 228 231 234 235 235 229 222 218 210 201 196 198 198 199 196 197 200 201 201 192 177 179 186 196 201 203 208 210 212
168 186 188 182 188 196 199 208 203 186 187 202 213 239 222 220 223 227 228 227 227 220 218 214 207 198 195 197 195 195 193 194 197 197 199 198 201 206 206 201 194 196 203 211
167 178 183 193 195 198 182 176 195 199 209 220 209 239 235 206 224 226 225 225 226 223 218 215 211 202 188 183 186 184 182 182 188 197 202 207 212 211 196 189 193 195 191 204
199 214 216 203 184 179 143 141 139 180 208 233 216 226 246 211 223 224 223 224 224 224 221 216 209 193 181 173 173 171 171 169 175 185 193 200 203 198 192 195 198 199 196 196
186 195 196 196 162 164 178 171 171 183 203 226 188 222 247 239 229 232 231 228 225 223 222 215 205 195 187 178 171 167 167 164 166 170 177 184 191 195 203 203 203 203 203 203
184 188 188 195 196 181 192 210 224 206 200 185 188 229 243 255 251 249 250 247 237 227 219 213 206 198 188 179 172 168 167 164 162 163 161 161 167 178 188 197 196 200 208 209
201 177 156 193 200 183 180 210 260 317 151 221 210 239 262 240 237 235 237 238 234 225 218 210 200 193 184 177 174 169 164 158 156 157 156 153 157 163 166 168 173 179 181 184
228 182 172 162 174 216 232 179 180 205 212 224 216 229 227 191 212 221 227 228 223 213 206 198 188 180 174 168 163 162 160 152 147 148 143 138 144 149 154 161 160 155 149 159
214 194 164 177 201 192 180 189 201 206 249 251 229 205 112 245 252 252 249 237 217 200 192 183 174 167 162 158 158 157 153 148 146 144 139 138 132 128 134 136 134 133 130 133
199 216 194 202 205 222 214 209 196 203 208 235 261 252 99 281 299 280 273 244 204 187 180 173 166 163 162 161 159 157 155 152 147 142 139 133 129 132 133 127 120 119 119 109
181 201 185 180 194 195 218 217 215 225 225 219 231 235 113 256 289 262 238 205 180 174 173 172 171 172 171 169 166 162 160 155 149 147 145 141 141 141 136 129 124 120 117 111
197 223 237 238 211 182 203 208 208 208 220 229 235 254 259 266 271 269 258 225 198 189 185 183 182 181 178 175 172 168 164 159 155 154 154 152 148 144 138 132 129 123 120 117
227 236 240 258 254 215 221 215 209 215 227 239 249 254 264 273 281 279 273 251 223 211 202 197 194 188 183 180 178 174 168 164 162 161 160 156 148 143 143 139 134 130 124 118
247 249 245 250 240 227 236 231 223 226 234 243 257 265 268 276 274 265 257 247 236 224 215 209 203 198 193 190 185 179 176 170 168 169 166 157 155 153 152 148 145 140 134 130
248 239 233 245 241 234 244 229 222 223 226 232 243 255 270 270 263 259 255 247 239 233 222 213 208 204 201 195 188 185 178 169 172 173 168 166 165 162 160 157 155 150 144 138
241 240 240 251 222 238 278 195 224 231 242 238 251 266 274 276 281 279 265 254 246 237 227 217 210 205 201 192 186 180 170 171 174 175 174 174 172 168 165 165 163 157 149 145
224 236 241 233 241 261 274 222 202 220 252 243 249 263 273 287 283 269 255 248 247 244 232 219 206 199 189 183 177 171 172 176 179 182 181 179 176 173 173 173 167 159 153 147
206 230 242 234 243 249 343 40 194 219 253 280 255 271 281 268 258 306 5 292 249 237 219 202 184 176 178 175 170 174 178 182 189 188 183 179 179 179 180 178 168 160 156 153
231 222 231 241 250 268 323 308 182 227 357 356 288 284 277 251 279 339 349 354 357 107 151 161 162 168 173 167 171 181 184 193 189 177 175 177 181 183 179 172 167 161 158 157
270 257 235 237 238 259 30 134 214 328 346 325 312 310 289 275 294 320 352 24 55 81 102 137 152 153 157 167 176 184 192 184 169 170 174 178 180 177 173 170 166 167 165 168
277 299 299 272 288 358 347 303 326 326 311 315 314 318 306 284 285 330 47 56 66 79 96 117 143 145 156 175 185 189 183 165 167 172 177 178 179 179 176 177 173 172 177 182
290 293 275 280 286 309 309 311 315 315 310 315 317 312 294 280 282 118 91 71 73 83 101 118 143 158 171 182 194 193 171 169 173 179 180 179 181 181 181 183 183 184 187 191
285 289 278 276 299 310 306 327 324 322 320 319 335 329 310 275 239 184 114 81 65 80 108 151 181 195 194 188 194 186 175 174 179 184 184 184 187 186 186 191 196 199 203 202
249 262 281 291 324 309 304 318 320 315 312 308 315 331 345 332 217 143 117 81 67 76 148 194 221 229 218 205 203 191 183 182 183 187 190 189 189 190 190 192 200 214 216 216